This is the latest recevied weather packets stored in our database for station/object KD4PMP. If no packets are shown the sender has not sent any weather packets the latest 1 day(s).
| Time | Temp. | Humidity | Pressure | Rain* | Wind** | Luminosity | Snow |
|---|---|---|---|---|---|---|---|
| 1778047797 | 22.22° C | 74% | 1006.1 hPa | 0 mm | - | - | - |
| 1778047197 | 22.22° C | 73% | 1006.1 hPa | 0 mm | - | - | - |
| 1778046597 | 22.22° C | 73% | 1006 hPa | 0 mm | - | - | - |
| 1778045426 | 22.22° C | 73% | 1006.7 hPa | 0 mm | - | - | - |
| 1778044796 | 22.22° C | 73% | 1006.8 hPa | 0 mm | - | - | - |
| 1778043625 | 21.67° C | 73% | 1006.6 hPa | 0 mm | - | - | - |
| 1778042995 | 21.67° C | 72% | 1006.8 hPa | 0 mm | - | - | - |
| 1778042394 | 21.67° C | 73% | 1006.7 hPa | 0 mm | - | - | - |
| 1778041824 | 21.67° C | 73% | 1006.8 hPa | 0 mm | - | - | - |
| 1778040624 | 21.11° C | 74% | 1007 hPa | 0 mm | - | - | - |
| 1778039423 | 21.67° C | 73% | 1007.2 hPa | 0 mm | - | - | - |
| 1778038823 | 21.67° C | 72% | 1007.2 hPa | 0 mm | - | - | - |
| 1778038192 | 21.67° C | 72% | 1007.3 hPa | 0 mm | - | - | - |
| 1778037622 | 21.67° C | 72% | 1007.3 hPa | 0 mm | - | - | - |
| 1778037022 | 21.67° C | 72% | 1007.3 hPa | 0 mm | - | - | - |
| 1778036422 | 21.67° C | 72% | 1007.3 hPa | 0 mm | - | - | - |
| 1778035821 | 21.67° C | 71% | 1007.3 hPa | 0 mm | - | - | - |
| 1778035221 | 21.67° C | 71% | 1007.4 hPa | 0 mm | - | - | - |
| 1778034621 | 21.67° C | 71% | 1007.2 hPa | 0 mm | - | - | - |
| 1778033420 | 21.11° C | 72% | 1007.2 hPa | 0 mm | - | - | - |
| 1778032820 | 21.11° C | 72% | 1007.2 hPa | 0 mm | - | - | - |
| 1778032220 | 21.11° C | 72% | 1007.3 hPa | 0 mm | - | - | - |
| 1778031620 | 21.11° C | 73% | 1007.3 hPa | 0 mm | - | - | - |
| 1778031019 | 20.56° C | 74% | 1007.1 hPa | 0 mm | - | - | - |
| 1778030419 | 20° C | 76% | 1007.4 hPa | 0 mm | - | - | - |
* Rain latest hour (hover to see other rain measurements)
** Current wind speed in m/s (hover to see current wind gust speed)